Weather reports worldwide

Advertisment
Isle Of Portland, United Kingdom (3857): temperature & dewpoint: 26.10.2020 00:00:00 - 01.11.2020 00:00:00 (GMT)Isle Of Portland, United Kingdom (3857): wind speed & gusts: 26.10.2020 00:00:00 - 01.11.2020 00:00:00 (GMT)Isle Of Portland, United Kingdom (3857): wind direction: 26.10.2020 00:00:00 - 01.11.2020 00:00:00 (GMT)Isle Of Portland, United Kingdom (3857): reduced air pressure: 26.10.2020 00:00:00 - 01.11.2020 00:00:00 (GMT)Isle Of Portland, United Kingdom (3857): visibility: 26.10.2020 00:00:00 - 01.11.2020 00:00:00 (GMT)Isle Of Portland, United Kingdom (3857): precipitation: 26.10.2020 00:00:00 - 01.11.2020 00:00:00 (GMT)
Date & Time tt [°C] td [°C] ff [km/h] ff [kn] fx [km/h] fx [kn] dd ppp [hPa] vv [km] rr [mm]
01.11.2020 00:00:00 12,8 7,9 39 21 54 29 SW 1010,7 12 0,0
31.10.2020 23:00:00 12,6 7,6 41 22 54 29 SW 1011,4 14 0,0
31.10.2020 22:00:00 12,5 7,4 37 20 52 28 WSW 1011,5 13 0,0
31.10.2020 21:00:00 12,4 8,0 41 22 59 32 WSW 1012,5 12 0,0
31.10.2020 20:00:00 12,6 7,9 39 21 50 27 WSW 1012,5 6 0,0
31.10.2020 19:00:00 12,3 7,0 37 20 50 27 W 1012,1 9 0,0
31.10.2020 18:00:00 12,4 7,1 39 21 55 30 W 1011,6 12 0,0
31.10.2020 17:00:00 12,6 7,8 44 24 65 35 W 1011,1 12 0,0
31.10.2020 16:00:00 12,8 8,4 48 26 65 35 W 1010,5 12 0,0
31.10.2020 15:00:00 13,5 7,7 44 24 65 35 W 1009,8 12 0,0
31.10.2020 14:00:00 13,6 8,2 46 25 67 36 W 1008,5 14 0,0
31.10.2020 13:00:00 13,2 9,4 52 28 78 42 W 1007,7 12 0,0
31.10.2020 12:00:00 13,7 12,3 57 31 78 42 W 1006,4 8 2,8
31.10.2020 11:00:00 14,4 14,2 46 25 96 52 SSW 1006,8 2,8 1,8
31.10.2020 10:00:00 13,7 13,6 52 28 76 41 S 1006,8 4,3 1,8
31.10.2020 09:00:00 13,9 12,9 55 30 74 40 S 1007,4 8 0,2
31.10.2020 08:00:00 14,4 12,5 44 24 67 36 S 1009,1 10 0,0
31.10.2020 07:00:00 13,9 12,8 42 23 61 33 S 1010,4 9 0,0
31.10.2020 06:00:00 13,9 13,0 39 21 52 28 S 1011,7 8 0,0
31.10.2020 05:00:00 13,8 13,1 37 20 52 28 S 1013,3 8 0,0
31.10.2020 04:00:00 13,8 13,1 37 20 54 29 S 1014,3 6 0,0
31.10.2020 03:00:00 13,9 13,1 37 20 48 26 S 1015,5 8 0,0
31.10.2020 02:00:00 13,9 13,2 29 16 50 27 S 1016,3 2,9 0,0
31.10.2020 01:00:00 13,8 13,1 37 20 50 27 S 1017,0 8 0,0
31.10.2020 00:00:00 13,8 13,2 34 18 54 29 S 1017,9 7 0,0
30.10.2020 23:00:00 13,7 13,6 31 17 48 26 SSW 1018,7 2,5 0,2
30.10.2020 22:00:00 13,8 13,6 31 17 48 26 S 1019,0 3,3 0,0
30.10.2020 21:00:00 13,9 13,7 37 20 50 27 SSW 1019,1 3,2 0,0
30.10.2020 20:00:00 14,0 13,7 29 16 46 25 SSW 1019,0 9 0,2
30.10.2020 19:00:00 13,9 13,7 35 19 54 29 SW 1019,4 3,1 0,6
30.10.2020 18:00:00 14,0 13,6 39 21 52 28 SW 1019,2 2,1 0,2
30.10.2020 17:00:00 14,0 13,8 42 23 55 30 SW 1018,6 2,2 0,2
30.10.2020 16:00:00 13,9 13,8 39 21 52 28 SW 1018,4 5 0,0
30.10.2020 15:00:00 14,1 14,0 42 23 57 31 WSW 1018,1 4,3 0,2
30.10.2020 14:00:00 14,1 14,0 44 24 57 31 WSW 1018,1 2,3 0,2
30.10.2020 13:00:00 14,1 13,9 44 24 59 32 WSW 1017,8 2,9 0,0
30.10.2020 12:00:00 14,2 13,9 48 26 65 35 WSW 1017,8 2,2 0,0
30.10.2020 11:00:00 14,3 13,9 46 25 65 35 WSW 1017,5 6 0,0
30.10.2020 10:00:00 14,5 13,9 50 27 68 37 WSW 1017,1 4,7 0,0
30.10.2020 09:00:00 14,2 13,6 48 26 70 38 WSW 1016,6 6 0,0
30.10.2020 08:00:00 14,2 13,1 50 27 67 36 WSW 1016,4 6 0,0
30.10.2020 07:00:00 14,3 12,8 54 29 72 39 WSW 1015,8 6 0,0
30.10.2020 06:00:00 14,6 12,4 50 27 72 39 WSW 1015,3 8 0,0
30.10.2020 05:00:00 14,6 12,5 50 27 68 37 WSW 1015,3 9 0,0
30.10.2020 04:00:00 14,6 12,7 48 26 70 38 WSW 1015,0 7 0,0
30.10.2020 03:00:00 14,4 12,9 52 28 72 39 WSW 1014,7 7 0,0
30.10.2020 02:00:00 14,3 13,0 52 28 70 38 SW 1015,0 8 0,0
30.10.2020 01:00:00 14,4 12,9 46 25 65 35 SW 1015,1 8 0,0
30.10.2020 00:00:00 14,4 12,9 57 31 72 39 WSW 1014,9 9 0,0
29.10.2020 23:00:00 14,4 12,9 52 28 78 42 WSW 1014,7 9 0,0
29.10.2020 22:00:00 14,4 12,7 59 32 74 40 WSW 1014,2 7 0,0
29.10.2020 21:00:00 14,4 12,9 54 29 72 39 WSW 1014,0 7 0,0
29.10.2020 20:00:00 14,3 12,8 54 29 68 37 WSW 1013,9 6 0,0
29.10.2020 19:00:00 14,4 12,8 48 26 63 34 WSW 1014,5 8 0,0
29.10.2020 18:00:00 14,4 12,9 48 26 63 34 WSW 1014,5 8 0,0
29.10.2020 17:00:00 14,4 12,8 52 28 68 37 WSW 1014,1 8 0,0
29.10.2020 16:00:00 14,2 12,7 50 27 67 36 WSW 1013,7 7 0,0
29.10.2020 15:00:00 14,3 12,6 44 24 65 35 WSW 1013,5 5 0,0
29.10.2020 14:00:00 14,3 12,7 54 29 70 38 WSW 1013,5 7 0,0
29.10.2020 13:00:00 14,2 12,7 50 27 72 39 WSW 1013,6 8 0,0
29.10.2020 12:00:00 14,1 12,6 46 25 70 38 WSW 1014,1 9 0,0
29.10.2020 11:00:00 14,0 12,9 50 27 65 35 WSW 1014,0 9 0,0
29.10.2020 10:00:00 13,8 12,6 48 26 67 36 WSW 1014,0 9 0,4
29.10.2020 09:00:00 13,4 12,6 48 26 63 34 WSW 1013,7 5 1,0
29.10.2020 08:00:00 13,0 12,1 41 22 59 32 WSW 1013,7 5 0,4
29.10.2020 07:00:00 12,9 11,9 41 22 59 32 WSW 1013,7 7 0,4
29.10.2020 06:00:00 12,9 10,8 41 22 52 28 W 1013,4 7 0,2
29.10.2020 05:00:00 13,0 10,0 34 18 55 30 W 1013,3 7 0,0
29.10.2020 04:00:00 12,3 8,8 37 20 52 28 W 1012,6 11 0,0
29.10.2020 03:00:00 12,2 9,2 39 21 63 34 W 1012,3 10 0,0
29.10.2020 02:00:00 12,1 8,2 48 26 65 35 W 1011,3 16 0,0
29.10.2020 01:00:00 12,2 9,2 42 23 63 34 W 1011,2 12 0,0
29.10.2020 00:00:00 12,2 7,8 52 28 67 36 W 1010,4 13 0,0
28.10.2020 23:00:00 11,8 7,7 42 23 68 37 W 1010,0 18 0,0
28.10.2020 22:00:00 12,0 6,7 59 32 80 43 W 1008,6 17 0,0
28.10.2020 21:00:00 12,2 8,0 59 32 78 42 W 1007,9 14 0,0
28.10.2020 20:00:00 12,0 6,9 50 27 68 37 W 1007,0 12 0,0
28.10.2020 19:00:00 11,9 8,0 52 28 70 38 W 1006,5 11 0,0
28.10.2020 18:00:00 11,6 7,7 50 27 68 37 W 1005,5 15 0,0
28.10.2020 17:00:00 11,6 8,0 44 24 63 34 W 1004,6 14 0,0
28.10.2020 16:00:00 10,8 8,5 52 28 78 42 W 1004,0 8 1,4
28.10.2020 15:00:00 11,2 9,2 46 25 89 48 W 1003,2 7 4,4
28.10.2020 14:00:00 12,1 9,3 42 23 72 39 W 1003,0 8 0,2
28.10.2020 13:00:00 13,2 9,4 54 29 72 39 WSW 1003,1 8 0,0
28.10.2020 12:00:00 12,8 8,3 50 27 74 40 WSW 1003,5 14 0,0
28.10.2020 11:00:00 12,9 6,7 61 33 78 42 WSW 1003,1 16 0,0
28.10.2020 10:00:00 12,9 8,8 52 28 68 37 WSW 1003,1 14 0,2
28.10.2020 09:00:00 12,0 8,9 48 26 67 36 WSW 1002,9 11 0,2
28.10.2020 08:00:00 12,6 8,3 50 27 70 38 WSW 1002,6 12 0,0
28.10.2020 07:00:00 12,3 7,6 57 31 72 39 WSW 1001,7 9 0,0
28.10.2020 06:00:00 12,2 7,8 52 28 68 37 WSW 1001,7 11 0,0
28.10.2020 05:00:00 12,1 7,5 54 29 74 40 WSW 1001,5 11 0,0
28.10.2020 04:00:00 12,3 7,2 50 27 72 39 W 1001,2 12 0,0
28.10.2020 03:00:00 11,8 6,7 55 30 80 43 WSW 1001,5 16 0,0
28.10.2020 02:00:00 11,9 7,1 57 31 76 41 WSW 1001,2 12 0,2
28.10.2020 01:00:00 11,5 7,0 46 25 67 36 WSW 1001,2 18 0,0
28.10.2020 00:00:00 10,5 7,3 46 25 76 41 WSW 1001,5 20 0,2
27.10.2020 23:00:00 11,6 6,8 59 32 83 45 W 1001,1 9 0,0
27.10.2020 22:00:00 12,3 7,4 42 23 65 35 W 1001,0 17 0,0
27.10.2020 21:00:00 12,7 7,7 41 22 59 32 W 1000,4 13 0,0
27.10.2020 20:00:00 12,8 7,3 44 24 59 32 W 999,8 13 0,0
27.10.2020 19:00:00 12,8 7,6 42 23 55 30 W 999,4 10 0,0
27.10.2020 18:00:00 12,9 8,0 44 24 57 31 W 998,4 12 0,0
27.10.2020 17:00:00 13,2 8,2 39 21 61 33 W 997,5 15 0,0
27.10.2020 16:00:00 13,9 6,7 50 27 68 37 W 996,3 15 0,0
27.10.2020 15:00:00 13,4 10,9 44 24 70 38 W 995,8 15 0,2
27.10.2020 14:00:00 14,0 12,2 42 23 59 32 W 994,9 9 0,0
27.10.2020 13:00:00 14,1 14,0 44 24 61 33 WSW 994,7 10 0,0
27.10.2020 12:00:00 14,0 14,0 44 24 61 33 WSW 995,0 2,3 0,0
27.10.2020 11:00:00 13,5 13,5 44 24 67 36 SSW 995,4 1,8 0,6
27.10.2020 10:00:00 12,6 12,5 44 24 65 35 S 996,3 3,5 0,2
27.10.2020 09:00:00 11,9 11,6 39 21 61 33 S 997,4 2,3 0,8
27.10.2020 08:00:00 11,6 11,1 42 23 57 31 SSW 998,4 5 0,6
27.10.2020 07:00:00 11,1 9,6 34 18 48 26 SW 999,5 8 0,4
27.10.2020 06:00:00 11,1 8,6 31 17 54 29 SW 1000,3 17 0,2
27.10.2020 05:00:00 11,1 9,3 34 18 50 27 WSW 1001,1 10 0,4
27.10.2020 04:00:00 12,0 7,7 35 19 50 27 WSW 1001,4 19 0,0
27.10.2020 03:00:00 12,1 7,2 37 20 50 27 W 1001,9 14 0,0
27.10.2020 02:00:00 11,9 7,4 37 20 50 27 W 1002,6 13 0,0
27.10.2020 01:00:00 11,6 8,6 37 20 48 26 W 1002,9 17 0,0
27.10.2020 00:00:00 11,7 8,1 35 19 52 28 W 1003,2 29 0,0
26.10.2020 23:00:00 11,5 7,8 41 22 50 27 W 1003,4 25 0,0
26.10.2020 22:00:00 11,6 8,2 37 20 48 26 W 1003,5 20 0,0
26.10.2020 21:00:00 11,7 8,1 37 20 48 26 W 1003,1 25 0,0
26.10.2020 20:00:00 11,8 7,7 41 22 52 28 WNW 1002,7 22 0,0
26.10.2020 19:00:00 12,0 8,0 39 21 50 27 WNW 1002,5 18 0,0
26.10.2020 18:00:00 12,0 8,0 37 20 54 29 W 1002,0 22 0,0
26.10.2020 17:00:00 12,5 6,8 44 24 55 30 WNW 1001,3 21 0,0
26.10.2020 16:00:00 13,0 7,9 31 17 52 28 WNW 1000,7 17 0,0
26.10.2020 15:00:00 13,3 7,3 41 22 57 31 W 1000,3 15 0,0
26.10.2020 14:00:00 13,4 7,6 42 23 54 29 WNW 999,9 21 0,0
26.10.2020 13:00:00 13,4 7,2 42 23 52 28 WNW 999,6 16 0,0
26.10.2020 12:00:00 12,0 7,9 44 24 61 33 WNW 999,6 12 0,0
26.10.2020 11:00:00 12,7 8,9 46 25 61 33 WNW 999,0 22 0,0
26.10.2020 10:00:00 12,5 9,2 52 28 65 35 W 998,6 11 0,0
26.10.2020 09:00:00 12,3 8,5 50 27 63 34 W 998,2 13 0,0
26.10.2020 08:00:00 11,7 8,2 42 23 61 33 W 998,0 15 0,0
26.10.2020 07:00:00 11,3 8,1 48 26 57 31 W 997,3 13 0,0
26.10.2020 06:00:00 11,4 7,8 39 21 61 33 W 997,0 24 0,0
26.10.2020 05:00:00 11,2 7,1 50 27 63 34 W 996,6 19 0,0
26.10.2020 04:00:00 11,4 7,2 44 24 67 36 W 996,5 13 0,0
26.10.2020 03:00:00 11,6 6,7 44 24 61 33 W 996,4 23 0,0
26.10.2020 02:00:00 11,6 7,7 42 23 63 34 W 996,6 16 0,0
26.10.2020 01:00:00 11,6 6,6 46 25 57 31 W 996,7 20 0,0
26.10.2020 00:00:00 11,4 7,0 39 21 52 28 W 997,1 17 0,0

tt = temperature
td = dewpoint
ff = wind speed
fx = gusts
dd = wind direction
ppp = reduced air pressure
vv = visibility
rr = precipitation

Next stations